Regional Weather Roundup
Issued by NWS

Home | Current Version | Previous Version | Text Only | Print | Product List | Glossary Off
Versions: 1 2 3 4 5 6 7 8 9 10 11 12 13 14 15 16 17 18 19 20 21 22 23 24 25 26 27 28 29 30 31 32 33 34 35 36 37 38 39 40 41 42 43 44 45 46 47 48 49 50

000
ASUS43 KOAX 282010
RWRNE

WEATHER ROUNDUP FOR NEBRASKA
NATIONAL WEATHER SERVICE OMAHA NE
200 PM CST SAT FEB 28 2015

NOTES: SATELLITE DATA IS BEING USED TO AUGMENT CLOUD COVER ABOVE
       12000 FEET.
       "FAIR" INDICATES FEW OR NO CLOUDS BELOW 12,000 FEET WITH NO
       SIGNIFICANT WEATHER AND/OR OBSTRUCTIONS TO VISIBILITY.

  * THESE STATIONS DO NOT REPORT WEATHER SUCH AS RAIN...SNOW OR FOG.

NEZ001>004-019>022-054>056-282100-
NEBRASKA PANHANDLE

CITY           SKY/WX    TMP DP  RH WIND       PRES   REMARKS
SCOTTSBLUFF    MOSUNNY   31  12  45 VRB5      30.03  WCI  26
ALLIANCE       SUNNY     27   9  46 VRB5      30.03  WCI  22
CHADRON        PTSUNNY   25  13  60 SW6       30.09F WCI  18
KIMBALL        SUNNY     24  15  66 NE9       29.96F WCI  15
SIDNEY         PTSUNNY   24  13  62 W6        30.02  WCI  17
$$

NEZ057>060-069>072-079>082-282100-
SOUTHWEST NEBRASKA

CITY           SKY/WX    TMP DP  RH WIND       PRES   REMARKS
NORTH PLATTE   PTSUNNY   27   9  46 S10       30.15F WCI  17
IMPERIAL         N/A     24   9  52 S7        30.10  WCI  16
LEXINGTON      PTSUNNY   26  11  52 S10G17    30.20F WCI  17
MCCOOK         CLOUDY    27  11  51 S9        30.18  WCI  18
OGALLALA       MOSUNNY   26  11  53 S3        30.09F
$$

NEZ005>010-023>029-035>040-094-282100-
NORTH CENTRAL NEBRASKA

CITY           SKY/WX    TMP DP  RH WIND       PRES   REMARKS
VALENTINE      MOSUNNY   32  10  40 MISG      30.11F
AINSWORTH      SUNNY     28  11  47 W15       30.13F WCI  17
BROKEN BOW     MOSUNNY   29  10  45 S14       30.17  WCI  18
O`NEILL        MOSUNNY   31  12  44 SW16      30.19F WCI  20
ORD            SUNNY     28   7  41 SW14      30.21  WCI  17
THEDFORD       PTSUNNY   28  12  51 SW6       30.14F WCI  22
$$

NEZ041-046>049-061>064-073>077-083>087-282100-
SOUTH CENTRAL NEBRASKA

CITY           SKY/WX    TMP DP  RH WIND       PRES   REMARKS
GRAND ISLAND   CLOUDY    23  11  60 S12G21    30.29F WCI  12
AURORA         LGT SNOW  22  14  72 S12       30.29F WCI  11
HASTINGS       CLOUDY    21  13  71 S12       30.27F WCI   9
HEBRON         LGT SNOW  21  14  75 S8        30.34F WCI  11
HOLDREGE       CLOUDY    22  12  65 S10G16    30.23F WCI  11
KEARNEY *      CLOUDY    25  10  54 S9G18     30.24F WCI  15
YORK           LGT SNOW  21  16  79 S12       30.32F WCI   9
$$

NEZ011>018-030>034-042>045-282100-
NORTHEAST NEBRASKA

CITY           SKY/WX    TMP DP  RH WIND       PRES   REMARKS
NORFOLK        CLOUDY    27  10  49 S13G23    30.27  WCI  16
ALBION         MOSUNNY   28  10  46 S15G24    30.26F WCI  16
BLAIR          CLOUDY    23  14  68 S13       30.35F WCI  11
COLUMBUS *     PTSUNNY   25   7  46 SW15G22   30.33F WCI  12
FREMONT        PTSUNNY   24  13  65 S10       30.36F WCI  13
WAYNE          CLOUDY    27  11  53 S17       30.30F WCI  14
$$

NEZ050>053-065>068-078-088>093-282100-
SOUTHEAST NEBRASKA

CITY           SKY/WX    TMP DP  RH WIND       PRES   REMARKS
LINCOLN        LGT SNOW  21  16  81 S9        30.38F WCI  11
OMAHA EPPLEY   LGT SNOW  22  14  71 S13       30.40F FOG     WCI  10
BEATRICE       LGT SNOW  22  17  81 S8        30.36F WCI  13
FALLS CITY     LGT SNOW  23  17  78 S9        30.41F WCI  13
NEBRASKA CITY  LGT SNOW  22  15  75 S6        30.39F WCI  14
PLATTSMOUTH    LGT SNOW  21  15  78 S9        30.38F WCI  10
$$

NEZ044-045-051>053-067-282100-
OMAHA AREA

CITY           SKY/WX    TMP DP  RH WIND       PRES   REMARKS
OMAHA EPPLEY   LGT SNOW  22  14  71 S13       30.40F FOG     WCI  10
BLAIR          CLOUDY    23  14  68 S13       30.35F WCI  11
FREMONT        PTSUNNY   24  13  65 S10       30.36F WCI  13
MILLARD        LGT SNOW  22  15  72 S8        30.39F WCI  13
OFFUTT AFB     LGT SNOW  21  16  79 SE8       30.39F WCI  12
PLATTSMOUTH    LGT SNOW  21  15  78 S9        30.38F WCI  10
WAHOO          LGT SNOW  22  15  74 S12       30.36F WCI  11
$$


USA.gov is the U.S. government's official web portal to all federal, state and local government web resources and services.